Regional Weather Roundup
Issued by NWS

Home | Current Version | Previous Version | Graphics & Text | Print | Product List | Glossary On
Versions: 1 2 3 4 5 6 7 8 9 10 11 12 13 14 15 16 17 18 19 20 21 22 23 24 25 26 27 28 29 30 31 32 33 34 35 36 37 38 39 40 41 42 43 44 45 46 47 48 49 50
000
ASUS44 KMEG 011100
RWRTN
TENNESSEE HOURLY STATE WEATHER ROUNDUP
NATIONAL WEATHER SERVICE MEMPHIS TN
600 AM CDT WED OCT 01 2014

TNZ002-004-019-021-049-052-054-088>092-011200-
WEST TENNESSEE

CITY           SKY/WX    TMP DP  RH WIND       PRES   REMARKS
MEMPHIS INTL   PTCLDY    70  60  70 SE5       29.91R
NWS MEMPHIS      N/A     65 N/A N/A MISG        N/A
JACKSON        CLEAR     58  56  93 CALM      29.93R FOG
DYERSBURG      CLEAR     61  50  67 SE3       29.93R
UNION CITY     CLEAR     55  55 100 CALM      29.91S
PARIS          PTCLDY    57  55  94 CALM      29.94R
SAVANNAH       CLEAR     55  55 100 CALM      29.95R
$$

TNZ008-025-027-028-033-062-065-066-011200-
NORTH MIDDLE TENNESSEE

CITY           SKY/WX    TMP DP  RH WIND       PRES   REMARKS
NASHVILLE      PTCLDY    58  54  86 CALM      29.95R
CLARKSVILLE    CLEAR     58  54  86 CALM      29.94R FOG
COOKEVILLE     CLEAR     48  48 100 CALM      29.97R
CROSSVILLE     MOCLDY    55  50  83 CALM      30.02R HAZE
$$

TNZ061-075-076-078-094-096-097-011200-
SOUTH MIDDLE TENNESSEE

CITY           SKY/WX    TMP DP  RH WIND       PRES   REMARKS
WINCHESTER     CLEAR     54  54 100 CALM      29.97R
SHELBYVILLE    CLEAR     57  55  94 CALM      29.97R
$$

TNZ017-018-042-046-047-011200-
NORTHEAST TENNESSEE

CITY           SKY/WX    TMP DP  RH WIND       PRES   REMARKS
TRI CITIES     PTCLDY    51  49  92 CALM      30.02R FOG
ELIZABETHTON   SUNNY     50  50 100 CALM      30.03R
$$

TNZ012-013-036-069-073-074-011200-
CENTRAL EAST TENNESSEE

CITY           SKY/WX    TMP DP  RH WIND       PRES   REMARKS
KNOXVILLE      MOCLDY    57  55  93 CALM      29.99R
OAK RIDGE      FOG       57  56  96 CALM      30.01R VSB 1/4
GATLINBURG     SUNNY     52  52 100 CALM      30.00R
MORRISTOWN     SUNNY     55  54  94 CALM      30.01R
$$

TNZ083-085-099-011200-
SOUTHEAST TENNESSEE

CITY           SKY/WX    TMP DP  RH WIND       PRES   REMARKS
CHATTANOOGA    PTCLDY    62  59  90 CALM      29.98R FOG
$$

SKY/WX REPORTED AS FAIR MEANS FEW OR NO CLOUDS BELOW
12 THOUSAND FEET.




USA.gov is the U.S. government's official web portal to all federal, state and local government web resources and services.